Sexton Summit, OR

12:58 PM PDT on June 25, 2018 (GMT -0700)
Sexton Summit

Weather History for KSXT - March, 2011

Change the Weather History Date:

Friday, March 4, 2011

  Actual Average Record
Temperature  
Mean Temperature 36 °F -  
Max Temperature 42 °F 39 °F 53 °F (2002)
Min Temperature 30 °F 29 °F 23 °F (2017)
Degree Days  
Heating Degree Days 29    
Moisture  
Dew Point 33 °F    
Average Humidity 92    
Maximum Humidity 100    
Minimum Humidity 67    
Precipitation  
Precipitation 0.17 in - - ()
Sea Level Pressure  
Sea Level Pressure 30.15 in    
Wind  
Wind Speed 14 mph (South)    
Max Wind Speed 22 mph    
Max Gust Speed 46 mph    
Visibility 6 miles    
Events Fog , Rain    
Averages and records for this station are not official NWS values.
T = Trace of Precipitation, MM = Missing Value Source: NWS Daily Summary

Daily Weather History Graph

Daily Weather History Graph

Search for Another Location

Airport or City:

Astronomy

Mar. 04, 2011 Rise Set
Actual Time 6:44 AM PST 6:06 PM PST
Civil Twilight 6:16 AM PST 6:34 PM PST
Nautical Twilight 5:43 AM PST 7:07 PM PST
Astronomical Twilight 5:10 AM PST 7:40 PM PST
Moon 6:18 AM PST (3/4) 6:23 PM PST (3/4)
Length of Visible Light 12h 18m
Length of Day
11h 22m
Waning Crescent, 0% of the Moon is Illuminated
Mar 4
Waning Crescent
Mar 4
New
Mar 12
First Quarter
Mar 19
Full
Mar 26
Last Quarter

Hourly Weather History & Observations

Time (PST) Temp. Windchill Dew Point Humidity Pressure Visibility Wind Dir Wind Speed Gust Speed Precip Events Conditions
12:05 AM 32.0 °F 21.6 °F 32.0 °F 100% 30.18 in 1.8 mi South 15.0 mph - N/A   Overcast
12:09 AM 32.0 °F 22.1 °F 32.0 °F 100% 30.18 in 0.8 mi SSE 13.8 mph - N/A   Overcast
12:18 AM 32.0 °F 22.1 °F 32.0 °F 100% 30.18 in 1.5 mi SSE 13.8 mph - N/A   Mostly Cloudy
12:26 AM 32.0 °F 21.6 °F 32.0 °F 100% 30.18 in 3.0 mi South 15.0 mph - N/A   Mostly Cloudy
12:33 AM 30.2 °F 18.9 °F 30.2 °F 100% 30.18 in 10.0 mi SSE 16.1 mph - N/A   Partly Cloudy
12:56 AM 32.0 °F 21.6 °F 30.9 °F 96% 30.26 in 10.0 mi South 15.0 mph - N/A   Clear
1:56 AM 32.0 °F 22.1 °F 30.9 °F 96% 30.25 in 9.0 mi SE 13.8 mph - N/A   Partly Cloudy
2:12 AM 32.0 °F 22.5 °F 32.0 °F 100% 30.17 in 1.8 mi SE 12.7 mph - N/A   Clear
2:15 AM 32.0 °F 22.1 °F 32.0 °F 100% 30.17 in 1.0 mi SE 13.8 mph - N/A   Mist
2:25 AM 32.0 °F 22.1 °F 32.0 °F 100% 30.17 in 0.5 mi SE 13.8 mph - N/A Fog Fog
2:52 AM 32.0 °F 22.5 °F 32.0 °F 100% 30.16 in 1.2 mi SSE 12.7 mph - N/A   Mostly Cloudy
2:56 AM 32.0 °F 23.0 °F 32.0 °F 100% 30.24 in 1.0 mi SSE 11.5 mph - N/A   Mostly Cloudy
3:03 AM 32.0 °F 22.5 °F 32.0 °F 100% 30.16 in 1.5 mi SSE 12.7 mph - N/A   Mostly Cloudy
3:05 AM 32.0 °F 22.1 °F 32.0 °F 100% 30.16 in 2.5 mi SSE 13.8 mph - N/A   Scattered Clouds
3:12 AM 32.0 °F 21.2 °F 32.0 °F 100% 30.16 in 10.0 mi SSE 16.1 mph - N/A   Partly Cloudy
3:56 AM 32.0 °F 21.6 °F 30.9 °F 96% 30.22 in 10.0 mi SE 15.0 mph - N/A   Partly Cloudy
4:56 AM 32.0 °F 21.2 °F 30.9 °F 96% 30.21 in 10.0 mi SE 16.1 mph - N/A   Clear
5:34 AM 32.0 °F 21.2 °F 30.2 °F 93% 30.14 in 10.0 mi SSE 16.1 mph - N/A   Mostly Cloudy
5:56 AM 32.0 °F 21.6 °F 30.9 °F 96% 30.20 in 10.0 mi SSE 15.0 mph - N/A   Overcast
6:18 AM 33.8 °F 23.9 °F 30.2 °F 87% 30.13 in 10.0 mi SSE 15.0 mph - N/A   Scattered Clouds
6:28 AM 33.8 °F 24.3 °F 30.2 °F 87% 30.13 in 10.0 mi SSE 13.8 mph - N/A   Mostly Cloudy
6:56 AM 33.1 °F 22.6 °F 30.9 °F 92% 30.20 in 10.0 mi SSE 16.1 mph - N/A   Overcast
7:56 AM 34.0 °F 23.4 °F 32.0 °F 92% 30.19 in 10.0 mi SE 17.3 mph - N/A   Overcast
8:25 AM 33.8 °F 23.5 °F 32.0 °F 93% 30.13 in 10.0 mi SE 16.1 mph - N/A   Mostly Cloudy
8:56 AM 35.1 °F 25.2 °F 32.0 °F 89% 30.18 in 10.0 mi SE 16.1 mph - N/A   Partly Cloudy
9:56 AM 37.0 °F 28.9 °F 33.1 °F 86% 30.17 in 10.0 mi SE 12.7 mph 23.0 mph N/A   Clear
10:56 AM 39.9 °F 32.5 °F 34.0 °F 79% 30.17 in 10.0 mi South 12.7 mph - N/A   Mostly Cloudy
11:56 AM 39.9 °F 32.1 °F 32.0 °F 73% 30.17 in 10.0 mi South 13.8 mph 21.9 mph N/A   Overcast
12:13 PM 39.2 °F 32.5 °F 32.0 °F 75% 30.12 in 10.0 mi South 10.4 mph 27.6 mph N/A   Overcast
12:56 PM 39.9 °F 31.8 °F 33.1 °F 77% 30.16 in 10.0 mi South 15.0 mph 25.3 mph N/A   Overcast
1:03 PM 39.2 °F 30.8 °F 33.8 °F 81% 30.11 in 10.0 mi South 15.0 mph 25.3 mph N/A   Overcast
1:15 PM 41.0 °F 33.9 °F 33.8 °F 76% 30.11 in 10.0 mi South 12.7 mph 28.8 mph N/A   Overcast
1:56 PM 42.1 °F 33.9 °F 32.0 °F 67% 30.14 in 10.0 mi SSW 17.3 mph 28.8 mph N/A   Scattered Clouds
2:56 PM 41.0 °F 32.2 °F 32.0 °F 70% 30.13 in 10.0 mi South 18.4 mph 39.1 mph N/A   Mostly Cloudy
3:56 PM 39.9 °F 30.2 °F 32.0 °F 73% 30.14 in 10.0 mi SSW 20.7 mph 46.0 mph N/A   Overcast
4:56 PM 39.0 °F 29.9 °F 33.1 °F 79% 30.14 in 10.0 mi SSW 17.3 mph 35.7 mph N/A   Overcast
5:21 PM 39.2 °F 29.0 °F 33.8 °F 81% 30.07 in 10.0 mi South 21.9 mph 38.0 mph N/A   Overcast
5:56 PM 37.9 °F 28.5 °F 33.1 °F 83% 30.13 in 10.0 mi South 17.3 mph 28.8 mph N/A   Overcast
6:44 PM 37.4 °F 27.2 °F 33.8 °F 87% 30.08 in 10.0 mi SSW 19.6 mph 28.8 mph N/A   Overcast
6:56 PM 37.9 °F 28.5 °F 34.0 °F 86% 30.13 in 10.0 mi SSW 17.3 mph 31.1 mph N/A   Overcast
7:56 PM 37.9 °F 29.2 °F 34.0 °F 86% 30.13 in 10.0 mi SSW 15.0 mph 28.8 mph N/A   Overcast
8:56 PM 37.9 °F 29.2 °F 36.0 °F 93% 30.14 in 10.0 mi SSW 15.0 mph 32.2 mph 0.00 in Rain Light Rain
9:17 PM 37.4 °F 27.8 °F 37.4 °F 100% 30.10 in 9.0 mi SSW 17.3 mph 25.3 mph 0.00 in Rain Light Rain
9:28 PM 37.4 °F 29.3 °F 37.4 °F 100% 30.11 in 8.0 mi SW 12.7 mph 23.0 mph 0.01 in Rain Light Rain
9:39 PM 37.4 °F 29.8 °F 37.4 °F 100% 30.11 in 1.8 mi SSW 11.5 mph 19.6 mph 0.02 in Rain Light Rain
9:42 PM 37.4 °F 29.8 °F 37.4 °F 100% 30.11 in 0.8 mi SW 11.5 mph 23.0 mph 0.02 in Rain Light Rain
9:47 PM 37.4 °F 29.3 °F 37.4 °F 100% 30.11 in 0.2 mi SSW 12.7 mph 23.0 mph 0.03 in Fog , Rain Light Rain
9:56 PM 37.0 °F 28.9 °F 37.0 °F 100% 30.16 in 0.2 mi SW 12.7 mph 21.9 mph 0.03 in Fog , Rain Light Rain
10:10 PM 37.4 °F 29.3 °F 37.4 °F 100% 30.12 in 0.2 mi SW 12.7 mph - 0.02 in Fog , Rain Light Rain
10:37 PM 37.4 °F 31.4 °F 37.4 °F 100% 30.12 in 0.2 mi SW 8.1 mph - 0.05 in Fog , Rain Light Rain
10:56 PM 37.0 °F 32.4 °F 37.0 °F 100% 30.15 in 0.8 mi WSW 5.8 mph - 0.07 in Rain Light Rain
11:24 PM 37.4 °F 28.5 °F 37.4 °F 100% 30.11 in 0.8 mi SW 15.0 mph 24.2 mph 0.03 in Rain Light Rain
11:47 PM 37.4 °F 30.8 °F 37.4 °F 100% 30.11 in 0.2 mi SW 9.2 mph - 0.06 in Fog , Rain Rain
11:56 PM 37.0 °F 30.4 °F 37.0 °F 100% 30.15 in 0.5 mi SW 9.2 mph 25.3 mph 0.07 in Fog , Rain Light Rain